Retour au catalogue

FENGYUN 1C DEB

ActifPO
NORAD 30884·DEBRIS·🇨🇳 China

Lancé May 10, 1999 depuis Taiyuan Satellite Launch Center

Loading…

Prochains Passages (prochaines 24 heures)

TLE

FraisSource: Space-Track

Époque: Sep 14, 2026, 00:33 UTC

1 30884U 99025AXW 26257.02333537  .00006003  00000-0  79543-3 0  9996
2 30884  98.8863 283.5787 0060190 189.0536 170.9593 14.79052211 26975

Suivez FENGYUN 1C DEB en temps réel avec AllMySat

Download on the App Store